GAOFEN-10R

Last updated on Mon Sep 21 2026 00:02:46 GMT+0000 (Coordinated Universal Time)

1 44622U 19066A 26263.62041080 .00000674 00000+0 89338-4 0 9991 2 44622 98.0604 217.9450 0005552 170.2665 189.8657 14.83174143376522
UTC large
Height (km)
Speed (km/s)
/
Latitude / Longitude
Inclination (degrees)
Orbital Period (minutes)
Azimuth
Elevation
Range (km)
Doppler Factor

Next 0 passes for location: London (51.5072 / 0.1276)

No passes found over London.
GAOFEN-10R